This is the latest recevied weather packets stored in our database for station/object KC0SIQ-13. If no packets are shown the sender has not sent any weather packets the latest 1 day(s).
| Time | Temp. | Humidity | Pressure | Rain* | Wind** | Luminosity | Snow |
|---|---|---|---|---|---|---|---|
| 1777990606 | 0.56° C | 99% | 1013.1 hPa | 1.78 mm | 0 m/s | 37 W/m² | - |
| 1777990303 | 0.56° C | 99% | 1013.1 hPa | 1.78 mm | 0 m/s | 35 W/m² | - |
| 1777989999 | 0.56° C | 99% | 1013.4 hPa | 0 mm | 0 m/s | 37 W/m² | - |
| 1777989696 | 0.56° C | 99% | 1013.7 hPa | 0 mm | 0.45 m/s, 325° | 32 W/m² | - |
| 1777989392 | 0.56° C | 99% | 1013.2 hPa | 0 mm | 0 m/s | 26 W/m² | - |
| 1777989089 | 0.56° C | 99% | 1013.3 hPa | 0 mm | 0 m/s | 22 W/m² | - |
| 1777988784 | 0.56° C | 99% | 1013.5 hPa | 0 mm | 0 m/s | 19 W/m² | - |
| 1777988482 | 0.56° C | 99% | 1013.3 hPa | 0 mm | 0 m/s | 18 W/m² | - |
| 1777988179 | 0.56° C | 99% | 1013.4 hPa | 1.27 mm | 0 m/s | 16 W/m² | - |
| 1777987875 | 0.56° C | 99% | 1013.2 hPa | 1.27 mm | 0 m/s | 13 W/m² | - |
| 1777987571 | 0.56° C | 99% | 1013.1 hPa | 1.78 mm | 0 m/s | 10 W/m² | - |
| 1777987269 | 0.56° C | 99% | 1013.1 hPa | 1.78 mm | 0 m/s | 10 W/m² | - |
| 1777986966 | 0.56° C | 99% | 1013 hPa | 1.27 mm | 0 m/s | 9 W/m² | - |
| 1777986664 | 0.56° C | 99% | 1012.8 hPa | 1.27 mm | 0 m/s | 7 W/m² | - |
| 1777986361 | 0.56° C | 99% | 1012.7 hPa | 0 mm | 0 m/s | 6 W/m² | - |
| 1777986060 | 0.56° C | 99% | 1013 hPa | 0 mm | 0 m/s | 6 W/m² | - |
| 1777985756 | 0.56° C | 99% | 1013 hPa | 1.78 mm | 0 m/s | 8 W/m² | - |
| 1777985453 | 1.11° C | 98% | 1012.5 hPa | 1.78 mm | 0 m/s | 9 W/m² | - |
| 1777985149 | 1.11° C | 98% | 1012.6 hPa | 1.78 mm | 0 m/s | 8 W/m² | - |
| 1777984846 | 1.11° C | 98% | 1013 hPa | 3.05 mm | 0 m/s | 5 W/m² | - |
| 1777984542 | 1.11° C | 98% | 1012.5 hPa | 1.27 mm | 0 m/s | 4 W/m² | - |
| 1777984238 | 1.11° C | 98% | 1012.4 hPa | 1.78 mm | 0 m/s | 3 W/m² | - |
| 1777983935 | 1.11° C | 98% | 1012.5 hPa | 1.78 mm | 0 m/s | 1 W/m² | - |
| 1777983632 | 1.11° C | 98% | 1012.5 hPa | 1.27 mm | 0 m/s | 1 W/m² | - |
| 1777983329 | 1.11° C | 98% | 1012.4 hPa | 3.05 mm | 0 m/s | 1 W/m² | - |
* Rain latest hour (hover to see other rain measurements)
** Current wind speed in m/s (hover to see current wind gust speed)